Simultaneous Nadir Overpasses (SNOs) Predictions

Prediction of SNOs between NOAA-20 and NOAA-19 Satellite Orbit:

Table of predicted SNOs for the next 14.0 days since TLE Epoch: 11/9/2018
Index Date (NOAA-20) Time (NOAA-20) Lat,Lon (NOAA-20) SZA (NOAA-20 ) Date (NOAA-19) Time (NOAA-19) Lat,Lon (NOAA-19) SZA (NOAA-19 ) Distance(km) Time Diff (sec)
1 11/17/2018 11:15:00 80.34, -31.60 101.40 11/17/2018 11:13:54 80.36, -31.48 101.43 2.81 66
2 11/17/2018 12:05:45 -80.35, 135.61 78.58 11/17/2018 12:04:54 -80.35, 135.56 78.56 0.99 51
3 11/17/2018 12:56:30 80.35, -57.01 101.42 11/17/2018 12:55:55 80.36, -56.98 101.44 1.66 35
4 11/17/2018 13:47:15 -80.36, 110.20 78.56 11/17/2018 13:46:55 -80.35, 110.06 78.54 2.67 20
5 11/17/2018 14:38:00 80.35, -82.42 101.44 11/17/2018 14:37:56 80.36, -82.47 101.46 1.62 4
6 11/17/2018 15:28:45 -80.36, 84.79 78.54 11/17/2018 15:28:55 -80.37, 84.90 78.54 2.26 10
7 11/17/2018 16:19:30 80.35,-107.83 101.47 11/17/2018 16:19:57 80.36,-107.97 101.48 2.75 27
8 11/17/2018 17:10:15 -80.36, 59.38 78.51 11/17/2018 17:10:56 -80.37, 59.40 78.53 0.85 41
9 11/17/2018 18:01:01 80.38,-133.56 101.54 11/17/2018 18:01:58 80.36,-133.46 101.49 2.80 57




NCC Satellite Simultaneous Nadir Overpasses (SNOs) Prediction Service
